Flag for Madagascar Weather past 2 weeks in Antananarivo, Madagascar

Now
57 °F

Passing clouds.


Feels Like: 57 °F
Forecast: 53 / 75 °F
Wind: 5 mph from Southeast

Location: Antananarivo / Ivato

Current Time: Jul 5, 2015 at 3:55:15 AM

Latest Report: Jul 5, 2015 at 3:30 AM


Visibility: N/A

Pressure: 30.33 "Hg (26.02 "Hg at 1287m altitude)

Humidity: 100%

Dew point: 57 °F

Location of AntananarivoLocation

Historic Weather in Antananarivo — Graph

°F

Antananarivo temperature yesterday

Maximum temperature yesterday: 70 °F (at 1:30 PM)
Minimum temperature yesterday: 57 °F (at 1:00 AM)
Average temperature yesterday: 62 °F

Past Weeks' High & Low Weather Summary

 TemperatureHumidityPressure
High73 °F (Jun 30, 1:30 PM)100% (Jun 20, 2:00 AM)30.39 "Hg (Jun 20, 2:00 AM)
Low48 °F (Jun 26, 6:00 AM)44% (Jun 30, 2:30 PM)30.18 "Hg (Jun 30, 2:00 PM)
Average61 °F92%30.31 "Hg
* Reported Jun 20 2:00 AM — Jul 5 2:30 AM, Antananarivo, Weather by CustomWeather, © 2015

Note: Actual official high and low records may vary slightly from our data, if they occured in-between our weather recording intervals... More about our weather records

Advertising

Antananarivo weather history for previous 24 hours

 ConditionsComfort  
Time TempWeatherWind HumidityBarometerVisibility
2:30 AM
Sun, Jul 5
57 °FPassing clouds.2 mph100%30.36 "HgN/A
2:00 AM57 °FPassing clouds.3 mph100%30.36 "HgN/A
1:30 AM59 °FPassing clouds.3 mph100%30.39 "HgN/A
1:00 AM59 °FPassing clouds.3 mph100%30.39 "HgN/A
12:30 AM59 °FPassing clouds.6 mph100%30.39 "HgN/A
12:00 AM59 °FPassing clouds.8 mph100%30.39 "HgN/A
11:00 PM
Sat, Jul 4
59 °FPassing clouds.7 mph100%30.39 "HgN/A
10:00 PM59 °FPassing clouds.9 mph100%30.39 "HgN/A
9:30 PM59 °FPassing clouds.9 mph100%30.39 "HgN/A
9:00 PM59 °FPassing clouds.7 mph100%30.39 "HgN/A
8:30 PM57 °FPassing clouds.7 mph100%30.39 "HgN/A
8:00 PM59 °FPassing clouds.8 mph100%30.39 "HgN/A
7:30 PM59 °FPassing clouds.7 mph100%30.36 "HgN/A
7:00 PM59 °FPassing clouds.7 mph100%30.36 "HgN/A
6:30 PM61 °FPassing clouds.9 mph100%30.33 "HgN/A
6:00 PM61 °FPassing clouds.12 mph100%30.33 "HgN/A
5:30 PM63 °FPassing clouds.10 mph94%30.33 "HgN/A
5:00 PM64 °FPartly sunny.10 mph88%30.33 "HgN/A
4:30 PM66 °FScattered clouds.9 mph83%30.33 "HgN/A
4:00 PM70 °FScattered clouds.8 mph78%30.30 "HgN/A
3:30 PM70 °FScattered clouds.8 mph73%30.30 "HgN/A
3:00 PM70 °FScattered clouds.5 mph78%30.30 "HgN/A
2:30 PM70 °FScattered clouds.6 mph78%30.30 "HgN/A
2:00 PM68 °FScattered clouds.7 mph78%30.33 "HgN/A
1:30 PM70 °FBroken clouds.7 mph78%30.33 "HgN/A
1:00 PM66 °FBroken clouds.9 mph83%30.33 "HgN/A
12:30 PM66 °FBroken clouds.7 mph83%30.36 "HgN/A
12:00 PM68 °FBroken clouds.7 mph78%30.36 "HgN/A
11:30 AM66 °FBroken clouds.7 mph83%30.36 "HgN/A
11:00 AM66 °FBroken clouds.9 mph83%30.39 "HgN/A
10:30 AM66 °FPartly sunny.6 mph88%30.39 "HgN/A
10:00 AM64 °FPartly sunny.5 mph88%30.39 "HgN/A
9:30 AM63 °FPartly sunny.6 mph94%30.39 "HgN/A
9:00 AM61 °FPartly sunny.3 mph100%30.39 "HgN/A
8:30 AM61 °FPartly sunny.5 mph100%30.39 "HgN/A
8:00 AM59 °FPartly sunny.2 mph100%30.39 "HgN/A
7:30 AM57 °FPartly sunny.6 mph100%30.39 "HgN/A
7:00 AM57 °FPartly sunny.2 mph100%30.36 "HgN/A
6:30 AM57 °FPartly sunny.1 mph100%30.36 "HgN/A
6:00 AM57 °FPassing clouds.6 mph100%30.36 "HgN/A
5:30 AM57 °FPassing clouds.5 mph100%30.36 "HgN/A
5:00 AM57 °FPassing clouds.3 mph100%30.33 "HgN/A
4:30 AM57 °FPassing clouds.7 mph100%30.33 "HgN/A
4:00 AM57 °FPassing clouds.5 mph100%30.33 "HgN/A
3:30 AM57 °FPassing clouds.No wind100%30.33 "HgN/A
Weather by CustomWeather, © 2015

See weather overviewHow to use our weather pages